Miscellaneous Local Product
Issued by NWS North Platte, NE

Home | Current Version | Previous Version | Text Only | Print | Product List | Glossary On
Versions: 1 2 3 4 5 6 7 8 9 10 11 12 13 14 15 16 17 18 19 20 21 22 23 24 25 26 27 28 29 30 31 32 33 34 35 36 37 38 39 40 41 42 43 44 45 46 47 48 49 50
000
AXUS43 KLBF 191710
MISLBF


WESTERN AND NORTH CENTRAL NEBRASKA HOURLY WEATHER ROUNDUP
NATIONAL WEATHER SERVICE NORTH PLATTE NE
1200 PM CDT THU APR 19 2018

NOTE: "FAIR" INDICATES FEW OR NO CLOUDS BELOW 12,000 FEET WITH NO
SIGNIFICANT WEATHER AND/OR OBSTRUCTIONS TO VISIBILITY.

NOTE: STATIONS NOT REPORTING VARIABLES SUCH AS SKY/WEATHER OR
PRESSURE ARE PROVIDED BY RAWS AND APRS NETWORKS AND ARE NOT UNDER
NATIONAL WEATHER SERVICE QUALITY CONTROL.

...OBSERVATIONS IN AND NEAR THE EASTERN PANHANDLE OF NEBRASKA...

CITY           SKY/WX    TMP DP  RH WIND       PRES   REMARKS
PINE RIDGE     SUNNY     54  32  43 S12       30.32F
GORDON         FAIR      52  32  45 S9        30.33F
CHADRON        PTSUNNY   53  32  44 S15       30.30F
ALLIANCE       PTSUNNY   51  33  50 SE22G29   30.31F
SIDNEY         MOSUNNY   52  30  43 S21G30    30.31F
CRESCENT LAKE    N/A     50  34  54 S13G21      N/A
$$

...OBSERVATIONS IN NORTHERN NEBRASKA AND FAR SOUTHERN SOUTH DAKOTA...

CITY           SKY/WX    TMP DP  RH WIND       PRES   REMARKS
WINNER         FAIR      42  29  59 S7        30.45S
VALENTINE      SUNNY     48  29  47 SE10G17   30.41F
AINSWORTH      SUNNY     44  32  63 SE6       30.43F
O`NEILL        SUNNY     47  20  34 CALM      30.48S
THEDFORD       SUNNY     48  31  50 SE7       30.42S
BROKEN BOW     SUNNY     47  31  53 MISG      30.44S
ORD            SUNNY     46  24  42 E7        30.46S
ALBION         SUNNY     48  23  37 E5        30.47F
VALENTINE NWR    N/A     45  31  58 S6          N/A
HALSEY           N/A     47  26  44 E6          N/A
BUTTE            N/A     43  33  68 SE3         N/A
CHAMBERS         N/A     50  28  43 E6          N/A
EWING            N/A     46  28  48 NE3         N/A
$$

...OBSERVATIONS IN SOUTHWEST NEBRASKA AND FAR NORTHEAST COLORADO...

CITY           SKY/WX    TMP DP  RH WIND       PRES   REMARKS
WRAY           FAIR      55  30  38 SE16G24   30.35F
HOLYOKE        FAIR      55  32  41 S17G26    30.35F
IMPERIAL       SUNNY     53  32  44 E14G22    30.38F
OGALLALA       SUNNY     53  33  46 S9        30.37F
NORTH PLATTE   SUNNY     49  30  48 SE5       30.42F
MCCOOK         SUNNY     50  29  44 SE9       30.43F
LEXINGTON      SUNNY     47  31  53 SE5       30.46R
STAPLETON        N/A     47  31  53 E3          N/A
GOTHENBURG       N/A     47  29  49 E3          N/A
CALLAWAY         N/A     47  35  64 S6          N/A
$$

...OBSERVATIONS IN CENTRAL LINCOLN COUNTY AREA...

CITY           SKY/WX    TMP DP  RH WIND       PRES   REMARKS
N.P. AIRPORT   SUNNY     49  30  48 SE5       30.42F
N.P. DOWNTOWN    N/A     48  33  56 CALM        N/A
N.P. HILLCREST   N/A     47  31  53 SE6         N/A
$$

...OBSERVATIONS ACROSS THE ROCKIES AND WESTERN HIGH PLAINS...

CITY           SKY/WX    TMP DP  RH WIND       PRES   REMARKS
RAPID CITY     SUNNY     52  30  43 SE17G23   30.31F
SCOTTSBLUFF    CLOUDY    53  30  41 SE23G30   30.28F
CHEYENNE       PTSUNNY   45  19  35 S22G36    30.22F
DENVER         PTSUNNY   55  16  21 SE14G25   30.20F
BERTHOUD PASS  FAIR      28  18  64 SE13G22   30.30S WCI  18
MONARCH PASS   MOSUNNY   34   1  25 S17G26    30.41S WCI  23
ASPEN          SUNNY     56   4  12 S8G18     30.08F
STEAMBOAT      FAIR      52  19  27 SE5       30.05F
LARAMIE        PTSUNNY   45  12  26 SE30G40   30.14S
CASPER         MOSUNNY   48  26  42 VRB5      30.12F
$$

...OBSERVATIONS ACROSS THE NORTHERN PLAINS...

CITY           SKY/WX    TMP DP  RH WIND       PRES   REMARKS
BISMARCK       SUNNY     46  35  65 CALM      30.43F
FARGO          FAIR      50  31  48 W7        30.43S
PIERRE         SUNNY     46  33  60 CALM      30.42F
SIOUX FALLS    MOSUNNY   41  24  51 E5        30.50R
$$

...OBSERVATIONS ACROSS THE CENTRAL AND SOUTHERN PLAINS...

CITY           SKY/WX    TMP DP  RH WIND       PRES   REMARKS
OMAHA          MOSUNNY   50  29  44 NE6       30.48S
GRAND ISLAND   SUNNY     46  29  51 E8        30.47F
KANSAS CITY    MOSUNNY   51  30  44 N10       30.46R
WICHITA        MOSUNNY   52  29  41 N14       30.46R
DODGE CITY     SUNNY     55  31  39 NE9       30.43F
OKLAHOMA CITY  PTSUNNY   56  29  35 N9        30.43S
DALLAS         PTSUNNY   63  32  31 N14       30.36F
AMARILLO       SUNNY     58  24  27 S16G25    30.39F
$$




USA.gov is the U.S. government's official web portal to all federal, state and local government web resources and services.